This is the latest recevied weather packets stored in our database for station/object N5ZP. If no packets are shown the sender has not sent any weather packets the latest 10 day(s).
| Time | Temp. | Humidity | Pressure | Rain* | Wind** | Luminosity | Snow |
|---|---|---|---|---|---|---|---|
| 1778009086 | 32.78° C | 54% | 1002.1 hPa | 0 mm | - | 256 W/m² | - |
| 1778008783 | 32.78° C | 54% | 1002.2 hPa | 0 mm | - | 869 W/m² | - |
| 1778008481 | 32.78° C | 53% | 1002 hPa | 0 mm | - | 415 W/m² | - |
| 1778008178 | 32.78° C | 52% | 1002 hPa | 0 mm | - | 750 W/m² | - |
| 1778007873 | 32.78° C | 55% | 1001.7 hPa | 0 mm | - | 747 W/m² | - |
| 1778007568 | 32.22° C | 56% | 1002 hPa | 0 mm | - | 785 W/m² | - |
| 1778007266 | 31.67° C | 56% | 1001.8 hPa | 0 mm | - | 810 W/m² | - |
| 1778006962 | 31.67° C | 55% | 1001.8 hPa | 0 mm | - | 373 W/m² | - |
| 1778006659 | 31.11° C | 58% | 1001.9 hPa | 0 mm | - | 615 W/m² | - |
| 1778006356 | 31.11° C | 58% | 1001.9 hPa | 0 mm | - | 615 W/m² | - |
| 1778006053 | 30.56° C | 58% | 1001.9 hPa | 0 mm | - | 421 W/m² | - |
| 1778005749 | 30.56° C | 58% | 1001.9 hPa | 0 mm | - | 421 W/m² | - |
| 1778005446 | 30.56° C | 57% | 1001.8 hPa | 0 mm | - | 478 W/m² | - |
| 1778005143 | 30.56° C | 58% | 1002 hPa | 0 mm | - | 386 W/m² | - |
| 1778004840 | 30.56° C | 58% | 1002.1 hPa | 0 mm | - | 484 W/m² | - |
| 1778004537 | 30.56° C | 58% | 1001.8 hPa | 0 mm | - | 515 W/m² | - |
| 1778004233 | 30.56° C | 57% | 1002.2 hPa | 0 mm | - | 415 W/m² | - |
| 1778003930 | 30.56° C | 59% | 1002.2 hPa | 0 mm | - | 538 W/m² | - |
| 1778003626 | 30° C | 58% | 1002.1 hPa | 0 mm | - | 460 W/m² | - |
| 1778003323 | 30.56° C | 57% | 1002.1 hPa | 0 mm | - | 379 W/m² | - |
| 1778003021 | 31.11° C | 56% | 1002.2 hPa | 0 mm | - | 417 W/m² | - |
| 1778002716 | 30.56° C | 59% | 1001.8 hPa | 0 mm | - | 572 W/m² | - |
| 1778002413 | 30.56° C | 58% | 1002 hPa | 0 mm | - | 676 W/m² | - |
| 1778002110 | 30.56° C | 57% | 1001.9 hPa | 0 mm | - | 400 W/m² | - |
| 1778001808 | 30.56° C | 57% | 1002.1 hPa | 0 mm | - | 410 W/m² | - |
* Rain latest hour (hover to see other rain measurements)
** Current wind speed in m/s (hover to see current wind gust speed)